[[{"header":{"parameterUnit":"m.s-1","parameterCategory":1,"la1":30.2991,"la2":30.254,"lo1":-89.0895,"lo2":-89.0444,"dy":0.0017,"dx":0.0017,"nx":28,"ny":28,"refTime":"2025-04-13T21:00:00:Z","depth":0,"parameterNumber":2,"parameterNumberName":"U-component_of_WINDS"},"data":[0,0,0,0,0,0,0,0,0,0,0,0,0,0,0,0,0,0,0,0,0,0,0,0,0,0,0,0,0,0,0,0,0,0,0,0,0,0,0,0,0,0,0,0,0,0,0,0,0,0,0,0,0,0,0,0,0,0,5.7486,5.7488,0,5.763,5.7632,5.7634,5.757,5.7566,5.7563,5.756,5.7712,5.7719,5.7727,0,0,0,0,0,0,0,0,0,0,0,0,0,5.7159,5.7165,5.7486,5.7488,5.749,5.763,5.7632,5.7634,5.7571,5.7566,5.7562,5.7558,5.771,5.7719,5.7727,0,0,0,0,0,0,0,0,0,0,0,0,0,5.7302,5.7167,5.7486,5.7475,5.7475,5.763,5.7632,5.7635,5.7572,5.7566,5.7561,5.7556,5.7707,5.7718,5.7729,5.7904,0,0,5.7762,5.7767,0,0,0,0,0,0,0,0,5.7294,5.7314,5.7475,5.7476,5.7476,5.7577,5.7573,5.7725,5.7573,5.7535,5.7559,5.7553,5.7672,5.7685,5.7724,5.7911,5.7917,5.7763,5.777,5.7775,5.7778,0,0,0,0,0,0,0,5.7284,5.7308,5.7543,5.7477,5.7478,5.7464,5.7478,5.7601,5.7632,5.7538,5.7534,5.7551,5.7671,5.7714,5.7727,5.792,5.7763,5.7773,5.778,5.7784,5.8256,5.8261,0,0,0,0,0,0,5.7274,5.73,5.7539,5.7547,5.737,5.7474,5.749,5.755,5.763,5.7637,5.7556,5.7548,5.7698,5.7715,5.7733,5.7942,5.7775,5.7785,5.7792,5.825,5.8257,5.8264,0,0,0,0,0,0,5.7267,5.7296,5.7533,5.7423,5.7452,5.7485,5.7553,5.7556,5.7598,5.7644,5.7649,5.7593,5.7694,5.7717,5.7861,5.7946,5.779,5.78,5.8243,5.8252,5.826,5.8362,0,0,0,0,0,0,5.7258,5.7294,5.736,5.7424,5.7458,5.7658,5.7558,5.7562,5.7617,5.7608,5.768,5.7687,5.7692,5.7845,5.7872,5.7958,5.7809,5.8236,5.8247,5.8258,5.8351,5.8373,5.8392,0,0,0,0,0,5.7246,5.7384,5.7363,5.7393,5.7541,5.7663,5.7682,5.7683,5.7624,5.7691,5.772,5.7685,5.7933,5.786,5.789,5.7981,5.823,5.8244,5.8257,5.8342,5.8369,5.8392,0,0,0,0,0,0,5.733,5.7392,5.737,5.7532,5.7593,5.7652,5.7737,5.7712,5.7791,5.778,5.7779,5.7796,5.7944,5.7977,5.7896,5.8154,5.8072,5.8092,5.8127,5.8153,5.8173,5.8162,5.7818,0,0,0,0,0,5.7367,5.746,5.751,5.7648,5.7679,5.7703,5.7756,5.7751,5.7815,5.784,5.788,5.7944,5.8035,5.8096,5.8184,5.8356,5.837,5.8433,5.8454,5.847,5.8487,5.858,5.8608,5.8307,5.8307,5.8307,0,0,5.7446,5.7491,5.755,5.7666,5.7712,5.7809,5.7725,5.7832,5.7903,5.7857,5.7994,5.8026,5.8097,5.8255,5.8327,5.8288,5.8574,5.8487,5.85,5.8508,5.8596,5.8625,5.865,5.8316,5.8314,5.8313,0,0,5.7637,5.7681,5.78,5.7848,5.7918,5.7932,5.7961,5.8024,5.8043,5.818,5.8147,5.8233,5.8392,5.8443,5.8491,5.8701,5.8671,5.8729,5.8836,5.8926,5.895,5.897,5.9044,5.9071,5.8746,5.8747,5.8747,0,5.7726,5.7869,5.7865,5.7974,5.8026,5.7986,5.8107,5.8154,5.825,5.8288,5.8241,5.8438,5.8484,5.8653,5.8704,5.8744,5.8777,5.8721,5.8946,5.8967,5.8987,5.9057,5.9085,5.8753,5.8752,5.8752,5.8751,0,5.7974,5.8074,5.8162,5.8253,5.8316,5.843,5.8445,5.8508,5.8498,5.8518,5.8658,5.8711,5.8807,5.8847,5.884,5.9016,5.8989,5.8945,5.8862,5.9022,5.9088,5.9115,5.8762,5.876,5.8758,5.8756,0,0,5.8223,5.8309,5.8342,5.8382,5.8456,5.8534,5.8647,5.8739,5.8793,5.8861,5.8955,5.909,5.9049,5.9102,5.91,5.9179,5.934,5.9125,5.9127,5.9162,5.9537,5.9568,5.9599,5.9321,5.9327,5.9331,5.953,0,5.8419,5.8614,5.8614,5.8795,5.8887,5.885,5.8948,5.9005,5.9026,5.9108,5.9133,5.9227,5.9167,5.9199,5.9275,5.9304,5.9415,5.929,5.9409,5.9414,5.9391,5.9634,5.9668,5.9854,5.9556,5.956,5.9564,0,5.8674,5.8747,5.8937,5.8996,5.9034,5.9122,5.9206,5.9285,5.9349,5.9358,5.9417,5.9402,5.9518,5.9432,5.9591,5.9506,5.9555,5.9576,5.9584,5.9594,5.9497,5.965,5.9913,5.994,5.9604,5.9601,5.9598,0,5.8834,5.8981,5.9113,5.9149,5.9221,5.9284,5.9317,5.9375,5.943,5.9505,5.954,5.9628,5.9676,5.9744,5.9753,5.969,5.9913,5.9828,5.9924,5.9924,5.9972,5.9969,6.0245,6.0006,6.0005,6.0005,6.0004,0,5.9053,5.917,5.9185,5.9267,5.9397,5.9396,5.9525,5.9553,5.9605,5.9691,5.9666,5.9748,5.9756,5.984,5.9849,5.9978,6.0,6.0012,6.0012,6.0013,6.0012,6.0045,6.0031,6.0012,6.001,6.0009,6.0008,0,5.9254,5.9269,5.941,5.9467,5.9484,5.9577,5.9626,5.9704,5.9722,5.9832,5.9858,5.9887,5.9985,6.0001,6.0117,6.0122,6.0277,6.0265,6.0255,6.0253,6.0347,6.0338,6.0654,6.0695,6.043,6.0432,6.0435,0,5.9392,5.9481,5.9546,5.9601,5.9637,5.9727,5.9782,5.9785,5.9844,5.9922,5.999,6.0085,6.0161,6.032,6.0352,6.0441,6.043,6.0535,6.0443,6.0441,6.043,6.0424,6.0432,6.0552,6.0555,6.0557,6.0559,0,5.9634,5.9637,5.9717,5.98,5.9866,5.9932,5.9994,6.0041,6.0052,6.012,6.0219,6.0277,6.0394,6.0489,6.0576,6.0612,6.0588,6.0588,6.0614,6.0616,6.0605,6.0611,6.0302,6.058,6.0578,6.0577,6.0576,6.0575,5.9807,5.9884,5.9941,6.0031,6.0078,6.0136,6.0211,6.0238,6.032,6.0414,6.0411,6.0519,6.058,6.0694,6.0735,6.0821,6.0787,6.0826,6.0836,6.0845,6.0853,6.0593,6.0837,6.0836,6.0836,6.0835,6.0835,0,6.0047,6.0082,6.0164,6.0251,6.0322,6.0291,6.0358,6.0419,6.0514,6.0572,6.0647,6.076,6.0851,6.089,6.098,6.104,6.1032,6.1064,6.1059,6.1067,6.0879,6.0846,6.1069,6.1069,6.1069,6.1069,6.1069,6.1069,6.018,6.0307,6.0317,6.0467,6.0501,6.0606,6.0646,6.07,6.0746,6.0872,6.0947,6.0971,6.1022,6.1115,6.1197,6.1206,6.124,6.1277,6.1281,6.1104,6.1081,6.1058,6.1027,6.1285,6.1285,6.1462,6.1464,6.1465]},{"header":{"parameterUnit":"m.s-1","parameterCategory":1,"la1":30.2991,"la2":30.254,"lo1":-89.0895,"lo2":-89.0444,"dy":0.0017,"dx":0.0017,"nx":28,"ny":28,"refTime":"2025-04-13T21:00:00:Z","depth":0,"parameterNumber":3,"parameterNumberName":"V-component_of_WINDS"},"data":[0,0,0,0,0,0,0,0,0,0,0,0,0,0,0,0,0,0,0,0,0,0,0,0,0,0,0,0,0,0,0,0,0,0,0,0,0,0,0,0,0,0,0,0,0,0,0,0,0,0,0,0,0,0,0,0,0,0,0.5848,0.5848,0,0.5891,0.5891,0.5892,0.587,0.5869,0.5868,0.5867,0.5913,0.5915,0.5918,0,0,0,0,0,0,0,0,0,0,0,0,0,0.575,0.5752,0.5848,0.5848,0.5849,0.589,0.5891,0.5892,0.587,0.5869,0.5868,0.5866,0.5912,0.5915,0.5918,0,0,0,0,0,0,0,0,0,0,0,0,0,0.5792,0.5752,0.5848,0.5843,0.5843,0.589,0.5891,0.5892,0.5871,0.5869,0.5867,0.5866,0.5911,0.5915,0.5918,0.5973,0,0,0.5929,0.593,0,0,0,0,0,0,0,0,0.579,0.5796,0.5843,0.5844,0.5844,0.5873,0.5873,0.5919,0.5871,0.586,0.5867,0.5865,0.5901,0.5905,0.5917,0.5975,0.5977,0.5929,0.5931,0.5932,0.5933,0,0,0,0,0,0,0,0.5787,0.5794,0.5865,0.5844,0.5844,0.584,0.5844,0.5882,0.589,0.5861,0.586,0.5865,0.5901,0.5914,0.5918,0.5978,0.5929,0.5932,0.5934,0.5935,0.6083,0.6085,0,0,0,0,0,0,0.5784,0.5792,0.5863,0.5866,0.5812,0.5843,0.5847,0.5865,0.5889,0.5891,0.5866,0.5864,0.5909,0.5914,0.592,0.5986,0.5932,0.5936,0.5938,0.6081,0.6083,0.6085,0,0,0,0,0,0,0.5782,0.5791,0.5862,0.5829,0.5837,0.5846,0.5867,0.5867,0.588,0.5893,0.5895,0.5878,0.5908,0.5915,0.596,0.5987,0.5937,0.594,0.6079,0.6082,0.6084,0.6118,0,0,0,0,0,0,0.5779,0.579,0.5811,0.5829,0.5839,0.5901,0.5868,0.5869,0.5886,0.5883,0.5905,0.5907,0.5907,0.5955,0.5963,0.5991,0.5943,0.6076,0.608,0.6083,0.6114,0.6122,0.6128,0,0,0,0,0,0.5776,0.5819,0.5812,0.582,0.5865,0.5902,0.5908,0.5907,0.5888,0.5909,0.5917,0.5906,0.5982,0.596,0.5969,0.5998,0.6075,0.6079,0.6083,0.6111,0.612,0.6127,0,0,0,0,0,0,0.5804,0.5821,0.5813,0.5864,0.5881,0.5898,0.5925,0.5916,0.594,0.5937,0.5935,0.594,0.5987,0.5997,0.5971,0.6052,0.6026,0.6032,0.6044,0.6052,0.6059,0.6056,0.5946,0,0,0,0,0,0.5816,0.5844,0.5858,0.5901,0.591,0.5916,0.5932,0.593,0.5949,0.5956,0.5968,0.5987,0.6016,0.6035,0.6061,0.6115,0.612,0.614,0.6147,0.6152,0.6158,0.6187,0.6196,0.6099,0.6099,0.6099,0,0,0.5841,0.5854,0.5872,0.5907,0.592,0.595,0.5923,0.5955,0.5978,0.5962,0.6004,0.6014,0.6035,0.6085,0.6107,0.6094,0.6185,0.6157,0.6161,0.6164,0.6192,0.6201,0.621,0.6102,0.6101,0.6101,0,0,0.5903,0.5915,0.5952,0.5966,0.5987,0.599,0.5999,0.6017,0.6022,0.6065,0.6054,0.608,0.6129,0.6145,0.6159,0.6226,0.6217,0.6235,0.627,0.6298,0.6306,0.6313,0.6337,0.6345,0.624,0.624,0.624,0,0.5932,0.5976,0.5973,0.6006,0.6022,0.6008,0.6046,0.6059,0.6088,0.61,0.6085,0.6145,0.6159,0.6212,0.6228,0.624,0.6251,0.6233,0.6305,0.6312,0.6318,0.6341,0.635,0.6243,0.6242,0.6242,0.6242,0,0.6011,0.6041,0.6069,0.6096,0.6115,0.615,0.6153,0.6173,0.6169,0.6174,0.6218,0.6233,0.6263,0.6275,0.6272,0.6328,0.6319,0.6305,0.6278,0.6329,0.6351,0.636,0.6246,0.6245,0.6244,0.6244,0,0,0.6092,0.6116,0.6126,0.6139,0.616,0.6184,0.6219,0.6247,0.6264,0.6284,0.6314,0.6355,0.6341,0.6358,0.6356,0.6381,0.6433,0.6363,0.6364,0.6376,0.6496,0.6507,0.6518,0.6426,0.6428,0.6429,0.6495,0,0.6155,0.6216,0.6214,0.6271,0.6299,0.6285,0.6316,0.6333,0.6338,0.6364,0.637,0.64,0.6379,0.6389,0.6413,0.6422,0.6457,0.6417,0.6455,0.6456,0.645,0.6529,0.6541,0.6602,0.6503,0.6504,0.6505,0,0.6237,0.6259,0.6318,0.6335,0.6347,0.6374,0.64,0.6424,0.6443,0.6445,0.6463,0.6457,0.6493,0.6465,0.6515,0.6488,0.6503,0.6509,0.6512,0.6516,0.6484,0.6536,0.6621,0.663,0.6519,0.6518,0.6517,0,0.6291,0.6335,0.6376,0.6387,0.6408,0.6427,0.6437,0.6454,0.6471,0.6493,0.6504,0.6531,0.6546,0.6567,0.6568,0.6548,0.6619,0.6591,0.6622,0.6623,0.6639,0.6638,0.6728,0.6648,0.6648,0.6647,0.6647,0,0.6362,0.6399,0.6401,0.6426,0.6467,0.6465,0.6506,0.6514,0.6529,0.6556,0.6546,0.6572,0.6572,0.6598,0.66,0.6641,0.6648,0.6651,0.6651,0.6652,0.6652,0.6663,0.6659,0.665,0.6649,0.6649,0.6648,0,0.6429,0.6432,0.6476,0.6491,0.6496,0.6526,0.6539,0.6564,0.6568,0.6603,0.6611,0.6618,0.6649,0.6652,0.6688,0.6689,0.6739,0.6734,0.6732,0.6732,0.6763,0.676,0.6864,0.6878,0.6788,0.6789,0.679,0,0.6475,0.6503,0.6521,0.6538,0.6548,0.6576,0.6593,0.6592,0.661,0.6633,0.6655,0.6684,0.6708,0.6757,0.6766,0.6793,0.679,0.6824,0.6794,0.6794,0.6791,0.6789,0.6792,0.683,0.6831,0.6832,0.6833,0,0.6555,0.6555,0.6579,0.6604,0.6625,0.6645,0.6663,0.6678,0.6679,0.67,0.673,0.6749,0.6785,0.6814,0.6841,0.6851,0.6843,0.6842,0.6851,0.6853,0.6851,0.6853,0.6749,0.684,0.6839,0.6839,0.6838,0.6838,0.6613,0.6637,0.6654,0.6681,0.6695,0.6713,0.6736,0.6743,0.6768,0.6797,0.6795,0.6829,0.6847,0.6882,0.6894,0.6921,0.691,0.6922,0.6926,0.6929,0.6932,0.6846,0.6926,0.6926,0.6926,0.6925,0.6925,0,0.6693,0.6703,0.6728,0.6754,0.6776,0.6765,0.6785,0.6804,0.6834,0.6851,0.6874,0.6909,0.6937,0.6948,0.6976,0.6996,0.6992,0.7003,0.7002,0.7004,0.6941,0.6931,0.7005,0.7005,0.7005,0.7005,0.7005,0.7005,0.6738,0.6778,0.678,0.6827,0.6836,0.6869,0.6881,0.6898,0.6911,0.6951,0.6974,0.698,0.6995,0.7024,0.705,0.7052,0.7063,0.7076,0.7076,0.7017,0.7009,0.7001,0.6992,0.7078,0.7078,0.7138,0.7138,0.7139]}]]